Weather History for Harlan, KY

Change the Weather History Date:

Wednesday, June 5, 2013

  Actual Average (KLOZ) Record (KLOZ)
Temperature  
Mean Temperature 70 °F 70 °F  
Max Temperature 80 °F 81 °F 92 °F (2008)
Min Temperature 59 °F 59 °F 41 °F (1988)
Degree Days  
Heating Degree Days 0 1  
Month to date heating degree days 5  
Since 1 June heating degree days 5  
Since 1 July heating degree days 4201  
Cooling Degree Days 4 6  
Month to date cooling degree days 27  
Year to date cooling degree days 141  
Since 1 June cooling degree days 27  
Growing Degree Days 20 (Base 50)    
Moisture  
Dew Point 61 °F    
Average Humidity 80    
Maximum Humidity 100    
Minimum Humidity 54    
Precipitation  
Precipitation 0.00 in 0.15 in 1.39 in (1973)
Month to date precipitation 0.80  
Year to date precipitation 21.33  
Sea Level Pressure  
Sea Level Pressure 30.03 in    
Wind  
Wind Speed 1 mph (East)    
Max Wind Speed 13 mph    
Max Gust Speed 30 mph    
Visibility 7 miles    
Events      
T = Trace of Precipitation, MM = Missing Value Source: NWS Daily Summary

Daily Weather History Graph

Daily Weather History Graph

Search for Another Location

Airport:

Trip Planner

Search our weather history database for the weather conditions in past years. The results will help you decide how hot, cold, wet, or windy it might be!

Date:

Astronomy

Jun. 05, 2013 Rise Set
Actual Time 6:14 AM EDT 8:49 PM EDT
Civil Twilight 5:44 AM EDT 9:20 PM EDT
Nautical Twilight 5:06 AM EDT 9:57 PM EDT
Astronomical Twilight 4:24 AM EDT 10:40 PM EDT
Moon 4:14 AM EDT (6/5) 6:18 PM EDT (6/5)
Length of Visible Light 15h 36m
Length of Day
14h 35m
Waning Crescent, 8% of the Moon is Illuminated
Jun 5
Waning Crescent
Jun 8
New
Jun 16
First Quarter
Jun 23
Full
Jun 30
Last Quarter

Hourly Weather History & Observations

Time (EDT) Temp. Heat Index Dew Point Humidity Pressure Visibility Wind Dir Wind Speed Gust Speed Precip Events Conditions
12:15 AM 62.6 °F - 60.8 °F 94% 30.07 in 7.0 mi Calm Calm - N/A   Clear
12:35 AM 62.6 °F - 59.0 °F 88% 30.07 in 7.0 mi Calm Calm - N/A   Clear
12:55 AM 60.8 °F - 59.0 °F 94% 30.07 in 7.0 mi Calm Calm - N/A   Clear
1:15 AM 60.8 °F - 59.0 °F 94% 30.06 in 5.0 mi Calm Calm - N/A   Clear
1:35 AM 60.8 °F - 59.0 °F 94% 30.06 in 5.0 mi Calm Calm - N/A   Clear
1:55 AM 60.8 °F - 59.0 °F 94% 30.06 in 3.0 mi Calm Calm - N/A   Clear
2:15 AM 60.8 °F - 59.0 °F 94% 30.06 in 7.0 mi Calm Calm - N/A   Clear
2:35 AM 60.8 °F - 59.0 °F 94% 30.06 in 4.0 mi Calm Calm - N/A   Mostly Cloudy
2:55 AM 60.8 °F - 59.0 °F 94% 30.06 in 5.0 mi ENE 3.5 mph - N/A   Mostly Cloudy
3:15 AM 60.8 °F - 59.0 °F 94% 30.06 in 5.0 mi Calm Calm - N/A   Mostly Cloudy
3:35 AM 60.8 °F - 59.0 °F 94% 30.06 in 5.0 mi Calm Calm - N/A   Overcast
3:55 AM 60.8 °F - 59.0 °F 94% 30.06 in 4.0 mi SE 3.5 mph - N/A   Mostly Cloudy
4:15 AM 59.0 °F - 59.0 °F 100% 30.06 in 4.0 mi Calm Calm - N/A   Scattered Clouds
4:35 AM 59.0 °F - 59.0 °F 100% 30.06 in 3.0 mi SE 3.5 mph - N/A   Scattered Clouds
4:55 AM 59.0 °F - 59.0 °F 100% 30.06 in 2.5 mi Calm Calm - N/A   Mostly Cloudy
5:15 AM 59.0 °F - 59.0 °F 100% 30.06 in 3.0 mi Calm Calm - N/A   Mostly Cloudy
5:35 AM 59.0 °F - 59.0 °F 100% 30.07 in 3.0 mi Calm Calm - N/A   Mostly Cloudy
5:55 AM 59.0 °F - 57.2 °F 94% 30.07 in 1.8 mi Calm Calm - N/A   Overcast
6:15 AM 59.0 °F - 57.2 °F 94% 30.07 in 1.2 mi Calm Calm - N/A   Overcast
6:35 AM 59.0 °F - 57.2 °F 94% 30.08 in 1.8 mi Calm Calm - N/A   Overcast
6:55 AM 59.0 °F - 57.2 °F 94% 30.09 in 1.8 mi Calm Calm - N/A   Overcast
7:15 AM 59.0 °F - 59.0 °F 100% 30.09 in 2.5 mi Calm Calm - N/A   Overcast
7:35 AM 60.8 °F - 59.0 °F 94% 30.09 in 3.0 mi Calm Calm - N/A   Mostly Cloudy
7:55 AM 60.8 °F - 59.0 °F 94% 30.08 in 4.0 mi Calm Calm - N/A   Scattered Clouds
8:15 AM 62.6 °F - 59.0 °F 88% 30.09 in 4.0 mi Calm Calm - N/A   Scattered Clouds
8:35 AM 62.6 °F - 60.8 °F 94% 30.09 in 7.0 mi Calm Calm - N/A   Mostly Cloudy
8:55 AM 68.0 °F - 60.8 °F 78% 30.09 in 10.0 mi Calm Calm - N/A   Overcast
9:15 AM 68.0 °F - 60.8 °F 78% 30.09 in 10.0 mi Calm Calm - N/A   Overcast
9:35 AM 69.8 °F - 60.8 °F 73% 30.08 in 10.0 mi Calm Calm - N/A   Overcast
9:55 AM 71.6 °F - 60.8 °F 69% 30.08 in 10.0 mi ENE 4.6 mph - N/A   Overcast
10:15 AM 73.4 °F - 60.8 °F 65% 30.07 in 10.0 mi East 3.5 mph - N/A   Scattered Clouds
10:35 AM 75.2 °F - 60.8 °F 61% 30.06 in 10.0 mi East 5.8 mph - N/A   Scattered Clouds
10:55 AM 77.0 °F - 60.8 °F 57% 30.06 in 10.0 mi East 5.8 mph - N/A   Scattered Clouds
11:15 AM 75.2 °F - 60.8 °F 61% 30.05 in 10.0 mi ENE 5.8 mph - N/A   Mostly Cloudy
11:35 AM 75.2 °F - 60.8 °F 61% 30.05 in 10.0 mi ENE 3.5 mph - N/A   Overcast
11:55 AM 77.0 °F - 60.8 °F 57% 30.05 in 10.0 mi SE 5.8 mph - N/A   Overcast
12:15 PM 75.2 °F - 60.8 °F 61% 30.05 in 10.0 mi Calm Calm - N/A   Overcast
12:35 PM 77.0 °F - 60.8 °F 57% 30.05 in 10.0 mi Calm Calm - N/A   Overcast
12:55 PM 77.0 °F - 62.6 °F 61% 30.04 in 10.0 mi Calm Calm - N/A   Overcast
1:15 PM 77.0 °F - 62.6 °F 61% 30.03 in 10.0 mi Calm Calm - N/A   Overcast
1:35 PM 78.8 °F - 62.6 °F 57% 30.03 in 10.0 mi Calm Calm - N/A   Overcast
1:55 PM 77.0 °F - 62.6 °F 61% 30.03 in 10.0 mi Calm Calm - N/A   Overcast
2:15 PM 77.0 °F - 62.6 °F 61% 30.02 in 10.0 mi Calm Calm - N/A   Mostly Cloudy
2:35 PM 80.6 °F 81.8 °F 62.6 °F 54% 30.02 in 10.0 mi Calm Calm - N/A   Mostly Cloudy
2:55 PM 78.8 °F - 62.6 °F 57% 30.00 in 10.0 mi Calm Calm - N/A   Mostly Cloudy
3:15 PM 78.8 °F - 62.6 °F 57% 30.00 in 10.0 mi Calm Calm - N/A   Scattered Clouds
3:35 PM 78.8 °F - 64.4 °F 61% 30.00 in 10.0 mi Calm Calm - N/A   Clear
3:55 PM 78.8 °F - 66.2 °F 65% 29.99 in 10.0 mi Calm Calm - N/A   Scattered Clouds
4:15 PM 73.4 °F - 60.8 °F 65% 29.99 in 10.0 mi NNW 12.7 mph 29.9 mph N/A   Mostly Cloudy
4:35 PM 71.6 °F - 60.8 °F 69% 30.01 in 10.0 mi West 6.9 mph - N/A   Overcast
4:55 PM 71.6 °F - 60.8 °F 69% 29.99 in 10.0 mi Calm Calm - N/A   Overcast
5:15 PM 73.4 °F - 60.8 °F 65% 29.98 in 10.0 mi Calm Calm - N/A   Scattered Clouds
5:35 PM 75.2 °F - 60.8 °F 61% 29.96 in 10.0 mi Calm Calm - N/A   Scattered Clouds
5:55 PM 73.4 °F - 60.8 °F 65% 29.97 in 10.0 mi North - - N/A   Clear
6:15 PM 73.4 °F - 60.8 °F 65% 29.98 in 10.0 mi SSW 4.6 mph - N/A   Mostly Cloudy
6:35 PM 73.4 °F - 62.6 °F 69% 29.96 in 10.0 mi East 4.6 mph - N/A   Mostly Cloudy
6:55 PM 71.6 °F - 60.8 °F 69% 29.99 in 10.0 mi SSW 5.8 mph - N/A   Mostly Cloudy
7:15 PM 68.0 °F - 60.8 °F 78% 30.00 in 7.0 mi ESE 4.6 mph - N/A   Overcast
7:35 PM 64.4 °F - 62.6 °F 94% 29.98 in 2.0 mi Calm Calm - N/A   Overcast
7:55 PM 64.4 °F - 62.6 °F 94% 29.97 in 1.8 mi East 3.5 mph - N/A   Overcast
8:15 PM 64.4 °F - 62.6 °F 94% 29.96 in 10.0 mi Calm Calm - N/A   Mostly Cloudy
8:35 PM 64.4 °F - 60.8 °F 88% 29.96 in 4.0 mi ENE 4.6 mph - N/A   Scattered Clouds
8:55 PM 64.4 °F - 60.8 °F 88% 29.96 in 10.0 mi Calm Calm - N/A   Mostly Cloudy
9:15 PM 62.6 °F - 62.6 °F 100% 29.96 in 4.0 mi Calm Calm - N/A   Overcast
9:35 PM 64.4 °F - 62.6 °F 94% 29.96 in 7.0 mi Calm Calm - N/A   Overcast
9:55 PM 64.4 °F - 62.6 °F 94% 29.98 in 10.0 mi Calm Calm - N/A   Overcast
10:15 PM 64.4 °F - 62.6 °F 94% 29.98 in 7.0 mi Calm Calm - N/A   Overcast
10:35 PM 66.2 °F - 62.6 °F 88% 29.99 in 10.0 mi Calm Calm - N/A   Overcast
10:55 PM 66.2 °F - 62.6 °F 88% 29.99 in 10.0 mi North 4.6 mph - N/A   Overcast
11:15 PM 66.2 °F - 62.6 °F 88% 29.99 in 10.0 mi SSE 5.8 mph - N/A   Overcast
11:35 PM 66.2 °F - 62.6 °F 88% 29.99 in 10.0 mi North 4.6 mph - N/A   Overcast
11:55 PM 66.2 °F - 62.6 °F 88% 29.99 in 10.0 mi NNW 5.8 mph - N/A   Overcast